Regional Weather Roundup
Issued by NWS

Home | Current Version | Previous Version | Text Only | Print | Product List | Glossary Off
Versions: 1 2 3 4 5 6 7 8 9 10 11 12 13 14 15 16 17 18 19 20 21 22 23 24 25 26 27 28 29 30 31 32 33 34 35 36 37 38 39 40 41 42 43 44 45 46 47 48 49 50

000
ASUS45 KTFX 230319
RWRMT
MONTANA HOURLY WEATHER ROUNDUP
NATIONAL WEATHER SERVICE GREAT FALLS MT
819 PM MST SAT NOV 22 2014

NOTE: "FAIR" INDICATES FEW OR NO CLOUDS BELOW 12000 FEET WITH NO
SIGNIFICANT WEATHER AND/OR OBSTRUCTIONS TO VISIBILITY.

* THESE STATIONS ARE NOT UNDER NWS QUALITY CONTROL. THEY DO NOT
   REPORT WEATHER SUCH AS PRECIPITATION OR FOG.

MTZ001>007-043-230400-
WEST OF THE DIVIDE
CITY           SKY/WX    TMP DP  RH WIND       PRES   REMARKS
KALISPELL      PTCLDY    37  25  62 SW5       29.69R WCI  33
MISSOULA       MOCLDY    36  27  70 NW8       29.75R WCI  30
BUTTE          CLOUDY    28  19  69 W5        29.69R WCI  22
MULLAN PASS    LGT SNOW  25  23  92 NW9G22    29.72R VSB 1/2  WCI  16
* EUREKA APT   PTCLDY    39  23  53 SE5        N/A   WCI  35
* HAMILTON APT CLOUDY    36  30  79 S6        29.75R WCI  31
* LIBBY APT    PTCLDY    39  23  53 W3        29.74R
* LINCOLN      N/A       31  26  82 SW6G16     N/A   WCI  25
* LOOKOUT PASS N/A       29  28  96 NE7        N/A   WCI  22
* POLSON       N/A       32  25  75 SE2G8      N/A
* RONAN APT    MOCLDY    37  27  67 N/A        N/A
* SEELEY LAKE  N/A       33  24  70 NE4G13     N/A
* THOMP F APT  MOCLDY    21  14  74 N5G11      N/A   WCI  14
* YAAK HILL    N/A       36  23  59 NE1G6      N/A
$$

MTZ008-052>055-230400-
SOUTHWEST MONTANA
CITY           SKY/WX    TMP DP  RH WIND       PRES   REMARKS
BOZEMAN        PTCLDY    32  19  59 W9        29.68R WCI  24
DILLON         PTCLDY    28  16  61 SE7       29.70R WCI  21
* W YELLOWSTON CLEAR     15  12  88 N/A        N/A
* ENNIS APT    PTCLDY    36  12  37 E5         N/A   WCI  32
* THREE FORKS  PTCLDY    39  19  45 SW9        N/A   WCI  33
* BOULDER HILL N/A       31  10  41 S14G26     N/A   WCI  21
* MONIDA PASS  N/A       19   8  62 SE5        N/A   WCI  12
* RAYNOLDS PAS N/A       18 -16  20 NE2        N/A
* WHITEHALL    N/A       32  17  54 W8G14      N/A   WCI  25
* WISE RIVER   N/A       28  20  72 NW7G17     N/A   WCI  21
$$

MTZ009>010-012-014-046-048-049-054-230400-
EAST SLOPES AND CENTRAL MONTANA
CITY           SKY/WX    TMP DP  RH WIND       PRES   REMARKS
CUT BANK       PTCLDY    34  19  54 W22G29    29.50R WCI  22
GREAT FALLS    PTCLDY    34  18  52 SW16      29.55R WCI  24
HELENA         PTCLDY    37  21  52 W10G21    29.65R WCI  30
MALMSTROM AFB  MOCLDY    37  18  46 W20G28    29.57R WCI  27
* CONRAD       PTCLDY    36  19  50 CALM       N/A
* DEARBORN     N/A       40  16  38 S11G20     N/A   WCI  33
* EAST GLACIER N/A       31  15  51 NW15G27    N/A   WCI  20
* MONARCH      N/A       31  11  43 W17G27     N/A   WCI  20
* PENDROY      N/A       33  16  50 W24G32     N/A   WCI  20
* ROGERS PASS  N/A       28  21  75 SE18G31    N/A   WCI  15
* SAINT MARY   N/A       33  19  56 SW10G21    N/A   WCI  25
* SWEET GRASS  N/A       36  20  52 NW26G40    N/A   WCI  24
* WHITE SULPH  N/A       31  15  51 W6G18      N/A   WCI  25
$$

MTZ011-013-016-021-035-040-045-047-050-051-230400-
NORTH CENTRAL MONTANA
CITY           SKY/WX    TMP DP  RH WIND       PRES   REMARKS
HAVRE          CLOUDY    37  30  76 W23G32    29.46R WCI  26
LEWISTOWN      CLOUDY    37  18  46 NW10      29.52R WCI  30
* N BAR RANCH  CLOUDY    36  16  44 NW18G26   29.49R WCI  26
* CHINOOK      CLOUDY    37  32  82 W21G31    29.44R WCI  26
* FORT BENTON  CLOUDY    39  21  48 SW7       29.56R WCI  34
* CHESTER      N/A       39  22  51 W22G35     N/A   WCI  29
* DENTON       N/A       39  18  43 W20G35     N/A   WCI  29
* GEYSER       N/A       36  13  39 W29G38     N/A   WCI  23
* JUDITH GAP   N/A       34  13  42 W9G15      N/A   WCI  27
* LOMA         N/A       40  23  51 SW12       N/A   WCI  33
$$

MTZ017>020-022>027-061-062-230400-
NORTHEAST MONTANA
CITY           SKY/WX    TMP DP  RH WIND       PRES   REMARKS
GLASGOW        CLOUDY    37  30  76 W28G38    29.31R WCI  25
GLENDIVE       CLOUDY    41  27  58 W15       29.38R
JORDAN         CLEAR     39  25  57 W21G28    29.40R WCI  29
SIDNEY         PTCLDY    41  27  58 SW9       29.34S
WOLF POINT     CLEAR     39  28  65 W20G26    29.31R WCI  29
* BEAVER HILL  N/A       40  32  73 SW9        N/A   WCI  34
* CIRCLE       N/A       39  28  65 W8         N/A   WCI  33
* LINDSAY DVD  N/A       41  26  55 W21G27     N/A
* NAVAJO       N/A       37  27  67 W24G31     N/A   WCI  26
* PLENTYWOOD A CLEAR     37  27  67 W16       29.22S WCI  28
* POPLAR APT   CLEAR     39  27  62 N/A       29.30R
* SACO         N/A       39  32  76 SW29G37    N/A   WCI  27
* SCOBEY APT   CLEAR     37  27  67 SW22G29    N/A   WCI  26
$$

MTZ028>042-056>058-230400-
SOUTHCENTRAL AND SOUTHEAST MONTANA
CITY           SKY/WX    TMP DP  RH WIND       PRES   REMARKS
BAKER          CLOUDY    43  30  60 W12       29.39S
BILLINGS       FAIR      37  16  42 W13       29.54R WCI  29
LIVINGSTON     CLOUDY    37  18  46 E7        29.62R WCI  32
MILES CITY     CLOUDY    43  25  49 W16       29.44R
* BIG TIMBER A PTCLDY    37  16  42 NW8       29.59R WCI  31
* FORSYTH APT  MOCLDY    43  19  38 W12G20    29.47R
* LAUREL APT   CLEAR     41  14  33 W16G24     N/A
* ALZADA       N/A       37  35  92 NW14       N/A   WCI  28
* HYSHAM       N/A       41  13  32 W13G20     N/A
* LAME DEER    N/A       37  22  55 W16G24     N/A   WCI  28
* REED POINT   N/A       40  16  38 W18G26     N/A   WCI  31
* ROSCOE HILL  N/A       35   0  22 NW6G20     N/A   WCI  30
$$

REGIONAL REPORTS...DAKOTAS
CITY           SKY/WX    TMP DP  RH WIND       PRES   REMARKS
WILLISTON      FAIR      34  30  85 SW8       29.29F WCI  27
DICKINSON      MOCLDY    37  34  89 W10       29.33R WCI  30
BEACH          CLOUDY    39  34  82 W14       29.37R WCI  31
CROSBY         CLEAR     32  28  85 S13       29.22F WCI  22
TIOGA          CLEAR     37  34  89 SW14      29.29S WCI  28
BISMARCK       PTCLDY    34  30  85 CALM      29.34S
GRAND FORKS    MOCLDY    34  30  85 S16       29.36F WCI  24
FARGO          FOG       36  32  85 SE17      29.39F WCI  26
BUFFALO SD     CLOUDY    43  34  71 W22G31    29.37R
RAPID CITY     CLOUDY    43  30  60 E5        29.42S
$$

REGIONAL REPORTS...WYOMING/IDAHO/WASHINGTON
CITY           SKY/WX    TMP DP  RH WIND       PRES   REMARKS
GILLETTE       CLOUDY    36  28  73 NW18G25   29.52R WCI  26
SHERIDAN       CLOUDY    36  28  73 W7        29.52S WCI  30
CODY           PTCLDY    37  10  33 W6        29.58R WCI  32
YELLOWSTONE LA PTCLDY    14  10  84 W5        29.70R WCI   6
SALMON         MOCLDY    28  19  69 CALM      29.77R
MULLAN PASS    LGT SNOW  25  23  92 NW9G22    29.72S VSB 1/2  WCI  16
SAND POINT     MOCLDY    36  32  85 SW6       29.80R WCI  31
SPOKANE        FAIR      34  30  85 W14       29.83R WCI  24
$$

REGIONAL REPORTS...ALBERTA
CITY           SKY/WX    TMP DP  RH WIND       PRES   REMARKS
CALGARY        MOCLDY    32  27  82 N12       29.50R WCI  23
LETHBRIDGE     LGT RAIN  34  32  92 NW8       29.52R WCI  27
MEDICINE HAT   MOCLDY    36  30  79 NW15G26   29.44R WCI  27
EDMONTON       LGT SNOW  23  19  85 N14       29.55R WCI  10
WATERTON GATE  N/A       36  14  40 SW22G38    N/A   WCI  25
CARDSTON       N/A       36  18  48 W15G22     N/A   WCI  27
MILK RIVER     N/A       39  21  48 NW24G33    N/A   WCI  28
$$

REGIONAL REPORTS...SASKATCHEWAN
CITY           SKY/WX    TMP DP  RH WIND       PRES   REMARKS
SWIFT CURRENT  LGT SNOW  30  28  92 NW24G33   29.19R WCI  16
REGINA         CLOUDY    36  32  85 SW13      29.11R WCI  27
VAL MARIE      N/A       37  32  82 W24G33     N/A   WCI  26
ASSINIBOIA     N/A       36  32  85 W26G35     N/A   WCI  24
CORONACH       N/A       37  28  70 W21G29     N/A   WCI  26

$$




USA.gov is the U.S. government's official web portal to all federal, state and local government web resources and services.